Weather History for Beaufort MCAS, SC

Change the Weather History Date:

Friday, February 15, 2013

  Actual Average Record
Temperature  
Mean Temperature 50 °F -  
Max Temperature 61 °F 64 °F 57 °F (2014)
Min Temperature 39 °F 42 °F 37 °F (2014)
Degree Days  
Heating Degree Days 15    
Moisture  
Dew Point 40 °F    
Average Humidity 73    
Maximum Humidity 93    
Minimum Humidity 42    
Precipitation  
Precipitation 0.00 in - - ()
Sea Level Pressure  
Sea Level Pressure 30.06 in    
Wind  
Wind Speed 2 mph (ENE)    
Max Wind Speed 7 mph    
Max Gust Speed -    
Visibility 9 miles    
Events Fog    
Averages and records for this station are not official NWS values.
T = Trace of Precipitation, MM = Missing Value Source: NWS Daily Summary

Daily Weather History Graph

Daily Weather History Graph

Search for Another Location

Airport:

Trip Planner

Search our weather history database for the weather conditions in past years. The results will help you decide how hot, cold, wet, or windy it might be!

Date:

Astronomy

Feb. 15, 2013 Rise Set
Actual Time 7:05 AM EST 6:09 PM EST
Civil Twilight 6:40 AM EST 6:34 PM EST
Nautical Twilight 6:11 AM EST 7:02 PM EST
Astronomical Twilight 5:42 AM EST 7:31 PM EST
Moon 10:02 AM EST (2/15) 11:44 PM EST (2/15)
Length of Visible Light 11h 53m
Length of Day
11h 03m
Waxing Crescent, 30% of the Moon is Illuminated
Feb 15
Waxing Crescent
Feb 17
First Quarter
Feb 25
Full
Mar 4
Last Quarter
Mar 11
New

Hourly Weather History & Observations

Time (EST) Temp. Windchill Dew Point Humidity Pressure Visibility Wind Dir Wind Speed Gust Speed Precip Events Conditions
12:56 AM 43.0 °F - 39.9 °F 89% 30.08 in 9.0 mi Calm Calm - N/A   Clear
1:56 AM 41.0 °F - 39.0 °F 93% 30.08 in 3.0 mi Calm Calm - N/A   Clear
2:56 AM 42.1 °F - 39.0 °F 89% 30.07 in 10.0 mi Calm Calm - N/A   Clear
3:56 AM 43.0 °F 40.3 °F 39.0 °F 86% 30.06 in 10.0 mi North 4.6 mph - N/A   Clear
4:56 AM 41.0 °F 39.0 °F 39.0 °F 93% 30.09 in 10.0 mi NNW 3.5 mph - N/A   Clear
5:56 AM 41.0 °F 39.0 °F 37.0 °F 86% 30.09 in 10.0 mi North 3.5 mph - N/A   Clear
6:56 AM 39.0 °F - 36.0 °F 89% 30.10 in 5.0 mi Calm Calm - N/A   Partly Cloudy
7:56 AM 39.0 °F - 36.0 °F 89% 30.11 in 5.0 mi Calm Calm - N/A Fog Clear
8:56 AM 48.0 °F - 41.0 °F 77% 30.12 in 10.0 mi North 6.9 mph - N/A   Clear
9:56 AM 52.0 °F - 41.0 °F 66% 30.12 in 10.0 mi North 6.9 mph - N/A   Clear
10:56 AM 55.9 °F - - N/A% 30.12 in 10.0 mi ENE 4.6 mph - N/A   Clear
11:56 AM 57.0 °F - 37.9 °F 49% 30.11 in 10.0 mi ENE 5.8 mph - N/A   Clear
12:56 PM 57.9 °F - 37.9 °F 47% 30.09 in 10.0 mi Calm Calm - N/A   Partly Cloudy
1:56 PM 59.0 °F - 36.0 °F 42% 30.06 in 10.0 mi Calm Calm - N/A   Partly Cloudy
2:56 PM 60.1 °F - 39.9 °F 47% 30.02 in 10.0 mi South 4.6 mph - N/A   Clear
3:56 PM 61.0 °F - 39.9 °F 46% 30.00 in 10.0 mi SSE 6.9 mph - N/A   Clear
4:56 PM 60.1 °F - 39.0 °F 46% 29.99 in 10.0 mi SSE 4.6 mph - N/A   Clear
5:56 PM 55.0 °F - 43.0 °F 64% 30.00 in 10.0 mi South 4.6 mph - N/A   Clear
6:56 PM 51.1 °F - 42.1 °F 71% 30.01 in 10.0 mi SSW 3.5 mph - N/A   Clear
7:56 PM 48.9 °F - 41.0 °F 74% 30.01 in 10.0 mi Calm Calm - N/A   Clear
8:56 PM 46.9 °F - 41.0 °F 80% 30.01 in 10.0 mi Calm Calm - N/A   Clear
9:56 PM 46.9 °F - 42.1 °F 83% 30.00 in 10.0 mi Calm Calm - N/A   Clear
10:56 PM 45.0 °F - 41.0 °F 86% 30.01 in 10.0 mi Calm Calm - N/A   Clear
11:56 PM 45.0 °F 43.5 °F 42.1 °F 90% 29.99 in 10.0 mi WSW 3.5 mph - N/A   Clear